User: anonymous   Login
Location: �perlecques
(50.8057°N, 2.1521°E)
Time: 11:58:08
(UTC+00:00)
Language:

In-Cosmos 22 Rocket - Orbit

View from above orbital plane
View from above orbital plane
View from above satellite
View from above satellite

Ground track
Ground track

The orbit data is extracted from the following two-line orbital elements,

1 12646U 81075B   20191.58462348  .00000103  00000-0  44530-4 0  9997
2 12646  81.2257 250.3404 0068269  37.3524  71.2185 14.15897610 10084
Epoch (UTC): 09 July 2020 14:01:51
Eccentricity: 0.0068269
inclination: 81.2257°
perigee height: 790 km
apogee height: 888 km
right ascension of ascending node: 250.3404°
argument of perigee: 37.3524°
revolutions per day: 14.15897610
mean anomaly at epoch: 71.2185°
orbit number at epoch: 1008

The dashed part of the orbit path shows where the satellite is in the earth's shadow,  

DLR